TimeEDT,TemperatureF,Dew PointF,Humidity,Sea Level PressureIn,VisibilityMPH,Wind Direction,Wind SpeedMPH,Gust SpeedMPH,PrecipitationIn,Events,Conditions,WindDirDegrees,DateUTC
12:54 AM,46.0,23.0,40,30.35,10.0,NNW,12.7,-,N/A,,Partly Cloudy,330,2013-04-21 04:54:00
1:54 AM,45.0,21.9,40,30.37,10.0,North,9.2,-,N/A,,Partly Cloudy,350,2013-04-21 05:54:00
2:54 AM,43.0,21.0,42,30.40,10.0,NNW,13.8,-,N/A,,Clear,340,2013-04-21 06:54:00
3:54 AM,41.0,19.9,43,30.42,10.0,North,6.9,20.7,N/A,,Clear,360,2013-04-21 07:54:00
4:54 AM,39.0,19.0,45,30.45,10.0,North,10.4,-,N/A,,Clear,360,2013-04-21 08:54:00
5:54 AM,37.9,18.0,45,30.49,10.0,North,9.2,-,N/A,,Partly Cloudy,360,2013-04-21 09:54:00
6:54 AM,37.9,19.0,47,30.53,10.0,North,10.4,-,N/A,,Partly Cloudy,360,2013-04-21 10:54:00
7:54 AM,39.9,19.9,45,30.56,10.0,North,11.5,-,N/A,,Mostly Cloudy,350,2013-04-21 11:54:00
8:54 AM,42.1,19.9,41,30.57,10.0,North,11.5,19.6,N/A,,Mostly Cloudy,360,2013-04-21 12:54:00
9:54 AM,44.1,19.9,38,30.59,10.0,NNE,8.1,-,N/A,,Mostly Cloudy,30,2013-04-21 13:54:00
10:54 AM,45.0,21.0,39,30.60,10.0,Variable,5.8,-,N/A,,Scattered Clouds,0,2013-04-21 14:54:00
11:54 AM,48.0,21.9,36,30.59,10.0,North,5.8,-,N/A,,Scattered Clouds,360,2013-04-21 15:54:00
12:54 PM,50.0,21.9,33,30.58,10.0,North,6.9,-,N/A,,Scattered Clouds,10,2013-04-21 16:54:00
1:54 PM,51.1,24.1,35,30.57,10.0,Variable,5.8,-,N/A,,Scattered Clouds,0,2013-04-21 17:54:00
2:54 PM,54.0,25.0,33,30.55,10.0,ESE,8.1,-,N/A,,Scattered Clouds,120,2013-04-21 18:54:00
3:54 PM,54.0,24.1,31,30.55,10.0,East,8.1,-,N/A,,Scattered Clouds,100,2013-04-21 19:54:00
4:54 PM,54.0,24.1,31,30.54,10.0,East,5.8,-,N/A,,Mostly Cloudy,100,2013-04-21 20:54:00
5:54 PM,55.0,24.1,30,30.54,10.0,East,6.9,-,N/A,,Mostly Cloudy,80,2013-04-21 21:54:00
6:54 PM,52.0,23.0,32,30.55,10.0,East,6.9,-,N/A,,Mostly Cloudy,80,2013-04-21 22:54:00
7:54 PM,48.9,28.9,46,30.57,10.0,SE,8.1,-,N/A,,Mostly Cloudy,140,2013-04-21 23:54:00
8:54 PM,46.0,28.9,51,30.60,10.0,SE,8.1,-,N/A,,Partly Cloudy,140,2013-04-22 00:54:00
9:54 PM,45.0,28.0,52,30.62,10.0,SSE,5.8,-,N/A,,Scattered Clouds,160,2013-04-22 01:54:00
10:54 PM,44.1,28.0,53,30.62,10.0,South,3.5,-,N/A,,Scattered Clouds,180,2013-04-22 02:54:00
11:54 PM,44.1,27.0,51,30.63,10.0,Calm,Calm,-,N/A,,Scattered Clouds,0,2013-04-22 03:54:00